Etusivu
METAR-TAF:

METAR-TAF

Lentoasemat :

Uppsala, Ruotsi

Leveyspiiri: 59-53N, Pituuspiiri: 017-36E, korkeus merenpinnasta: 21 m

Tämänhetkinen sää

Tämä raportti tehtiin 30 minuuttia sitten, kello 11.50 UTC
Tuuli 7 kn lännestä
Lämpötila 13°C
Kosteus 58%
Ilmanpaine 999 hPa
Näkyvyys 10 km tai enemmän

METAR: ESCM 231150Z AUTO 26007KT 9999 FEW110/// SCT150/// 13/05 Q0999

Aika: 14:20 (12:20 UTC)


TAF: puuttuu

Säähavainnot ja -ennusteet yli 4000 lentoasemalta (METAR- ja TAF-raportit).

Käytössä olevat sääasemat on merkitty karttaan keltaisilla ja punaisilla pisteillä.

Aseta hiiri pisteen päälle nähdäksesi sääaseman nimen.

Klikkaa sitten nähdäksesi säähavainnot ja -ennusteet.

Kartan vaihtaminen: klikkaa mustalla rastilla varustettuja vihreitä pisteitä, niin voit zoomata sisään; viivalla varustettua vihreää pistettä, niin voit zoomata ulos tai vihreitä nuolia, niin pääset viereisille kartoille.


METAR-TAF: